Regional Weather Roundup
Issued by NWS

Home | Current Version | Previous Version | Text Only | Print | Product List | Glossary Off
Versions: 1 2 3 4 5 6 7 8 9 10 11 12 13 14 15 16 17 18 19 20 21 22 23 24 25 26 27 28 29 30 31 32 33 34 35 36 37 38 39 40 41 42 43 44 45 46 47 48 49 50

000
ASUS43 KDTX 251901
RWRMI
MICHIGAN HOURLY REGIONAL WEATHER ROUNDUP
NATIONAL WEATHER SERVICE DETROIT/PONTIAC MI
200 PM EST TUE NOV 25 2014

NOTE: "FAIR" INDICATES FEW OR NO CLOUDS BELOW 12,000 FEET WITH NO
SIGNIFICANT WEATHER AND/OR OBSTRUCTION TO VISIBILITY.

MIZ047>049-052>055-059>063-066>070-074>076-081>083-252000-
SOUTHEAST LOWER MICHIGAN

CITY           SKY/WX    TMP DP  RH WIND       PRES   REMARKS
ADRIAN         CLOUDY    29  21  72 W12G23    30.06R WCI  19
ALMA           PTSUNNY   32  24  72 W13G22    29.98R WCI  22
ANN ARBOR      CLOUDY    31  22  69 W17       30.02R WCI  19
BAD AXE        CLOUDY    33  26  73 W14G20    29.93R WCI  23
CARO           CLOUDY    34  25  69 SW16G24   29.95R WCI  23
DETROIT CITY   CLOUDY    34  21  59 W13G21    30.02R WCI  25
DETROIT        CLOUDY    32  22  66 SW14      30.04R WCI  22
FLINT          CLOUDY    33  24  69 W16       29.99R WCI  23
GROSSE ILE     CLOUDY    32  25  74 SW12      30.03R WCI  23
HILLSDALE      CLOUDY    27  23  84 W9G17     30.03S WCI  18
HOWELL         CLOUDY    30  24  78 W14G21    30.00R WCI  19

CITY           SKY/WX    TMP DP  RH WIND       PRES   REMARKS
JACKSON        CLOUDY    27  23  85 W13       30.03R WCI  16
LAMBERTVILLE   CLOUDY    34  23  64 W13G18    30.06R WCI  25
LANSING        FLURRIES  30  24  78 W16G22    30.01R WCI  19
LAPEER         MIX PCPN  30  27  88 W12       29.98R WCI  21
MASON          CLOUDY    30  25  81 SW9       30.01R WCI  22
MONROE         CLOUDY    32  25  74 W16       30.04R WCI  21
MT. CLEMENS    CLOUDY    34  23  64 SW14G22   29.98R WCI  24
PONTIAC        CLOUDY    30  21  69 W15G22    29.98R WCI  19
PORT HOPE        N/A     33  25  72 W9G23     29.90R WCI  25
PORT HURON     CLOUDY    34  23  64 SW8G18    29.99R WCI  27
TRI CITIES     CLOUDY    35  24  64 SW18      29.96R WCI  24
TROY           CLOUDY    34  22  61 W14       30.02R WCI  25
SAGINAW HB     CLOUDY    34  27  75 SW17      29.96R WCI  23
$$
MIZ043>046-050>051-056>058-064>065-071>073-077>080-252000-
SOUTHWEST LOWER MICHIGAN

CITY           SKY/WX    TMP DP  RH WIND       PRES   REMARKS
BATTLE CREEK   CLOUDY    31  22  69 W14       30.03R WCI  21
BENTON HARBOR  CLOUDY    28  20  71 W8        30.07S WCI  20
BIG RAPIDS     CLOUDY    30  26  86 W9G20     29.96R WCI  21
COLDWATER      CLOUDY    29  24  81 W10       30.04S WCI  20
FREMONT        CLOUDY    29  25  84 NW9       30.00R WCI  20
HOLLAND        CLOUDY    32  22  66 W9        30.04R WCI  24
GRAND RAPIDS   FLURRIES  30  22  72 W16       30.01R WCI  19
IONIA          CLOUDY    32  24  74 W15       29.99R WCI  21
KALAMAZOO      CLOUDY    29  21  72 W15       30.04S WCI  18
LUDINGTON      CLOUDY    29  23  78 W7        30.01R WCI  22
MARSHALL       CLOUDY    26  24  89 SW9       30.03R WCI  17
MOUNT PLEASANT CLOUDY    33  25  71 W12G18    29.96R WCI  24
MUSKEGON       FLURRIES  31  21  66 W12       30.03R WCI  22
SOUTH HAVEN    CLOUDY    31  23  73 W7        30.06R WCI  24
$$
MIZ016>042-252000-
NORTHERN LOWER MICHIGAN

CITY           SKY/WX    TMP DP  RH WIND       PRES   REMARKS
ALPENA         CLOUDY    29  26  89 W7        29.89R WCI  22
BEAVER ISLAND  LGT SNOW  30  26  86 NW10G20   29.91R WCI  21
BELLAIRE       FLURRIES  31  25  79 W7G16     29.94R WCI  24
CADILLAC       FLURRIES  28  24  82 W10       29.91R WCI  19
CHARLEVOIX     CLOUDY    30  25  83 W15G21    29.94R WCI  19
FRANKFORT      CLOUDY    29  24  81 NW9       29.97R WCI  20
GAYLORD        LGT SNOW  26  23  88 W6        29.87R FOG     WCI  19
GRAYLING       CLOUDY    28  24  86 W12G17    29.90R WCI  18
HARBOR SPRINGS LGT SNOW  29  24  81 W8        29.90R WCI  21
HOUGHTON LAKE  CLOUDY    29  23  78 W9G18     29.91R WCI  20
MANISTEE       CLOUDY    28  19  69 W12       29.99R WCI  18
OSCODA         LGT SNOW  32  28  85 W12G17    29.90R WCI  23
PELLSTON       LGT SNOW  29  24  82 NW12      29.90R WCI  19
ROGERS CITY    LGT SNOW  29  27  92 NW8       29.89R WCI  21
TRAVERSE CITY  FLURRIES  30  24  78 NW9       29.94R WCI  22
$$
MIZ007>008-015-252000-
EASTERN UPPER MICHIGAN

CITY           SKY/WX    TMP DP  RH WIND       PRES   REMARKS
KINROSS        CLOUDY    27  25  93 W6        29.86R WCI  20
MACKINAC ISLAN CLOUDY    28  25  88 W15G22    29.87R WCI  17
NEWBERRY       LGT SNOW  26  24  92 NW9       29.88R VSB 1   WCI  17
S. S. MARIE    CLOUDY    26  19  74 W7        29.84R WCI  18
MUNISING         N/A     29  18  63 NW10      29.93R WCI  20
$$
MIZ004>006-011>014-085-252000-
CENTRAL UPPER MICHIGAN

CITY           SKY/WX    TMP DP  RH WIND       PRES   REMARKS
MANISTIQUE     LGT SNOW  27  23  83 W14G20    29.92R WCI  16
ESCANABA       CLOUDY    27  16  63 NW12      29.96R WCI  16
MENOMINEE      CLOUDY    27  16  63 NW7       29.98R WCI  19
SAWYER-GWINN   FLURRIES  23  14  68 W9        29.92R WCI  13
$$
MIZ001>003-009>011-084-252000-
WESTERN UPPER MICHIGAN

CITY           SKY/WX    TMP DP  RH WIND       PRES   REMARKS
IRON MOUNTAIN  CLOUDY    24  11  57 NW10      29.94R WCI  14
HOUGHTON       FLURRIES  18   9  68 W14       29.93R WCI   4
COPPER HARBOR    N/A     26  18  71 N15G23    29.94R WCI  14
IRONWOOD       CLOUDY    18  10  73 SW9       29.95S WCI   6
$$

ABBREVIATIONS USED IN REMARKS
   TC - TEMPERATURE IN CELSIUS
  WCI - WIND CHILL INDEX
   HX - HEAT INDEX
  VSB - VISIBILITY




USA.gov is the U.S. government's official web portal to all federal, state and local government web resources and services.